EW9227 Weather Reports


time (UTC)temp
C
wind
direction
speed
KPH
gust
KPH
rain 1hr
cm
rain 24hr
cm
rain mn
cm
humidity
%
barometer
mb
20260503212020 14 262 3.2 11.3 0.00 0.00 0.00 77 1012.8
20260503211538 14 226 3.2 11.3 0.00 0.00 0.00 76 1012.8
20260503211023 14 276 4.8 11.3 0.00 0.00 0.00 76 1012.9
20260503210520 15 244 0.0 6.4 0.00 0.00 0.00 74 1012.9
20260503210037 14 0 0.0 6.4 0.00 0.00 0.00 77 1012.8
20260503205519 14 250 1.6 9.7 0.00 0.00 0.00 77 1012.9
20260503205020 13 269 3.2 9.7 0.00 0.00 0.00 77 1012.9
20260503204536 13 258 3.2 8.0 0.00 0.00 0.00 78 1012.9
20260503204019 13 262 1.6 8.0 0.00 0.00 0.00 78 1012.8
20260503203519 13 227 1.6 8.0 0.00 0.00 0.00 78 1013.0
20260503203053 13 264 1.6 8.0 0.00 0.00 0.00 78 1013.2
20260503202520 13 281 1.6 8.0 0.00 0.00 0.00 79 1013.1
20260503202023 13 242 3.2 8.0 0.00 0.00 0.00 78 1013.1
20260503201541 13 0 1.6 4.8 0.00 0.00 0.00 78 1013.2
20260503201018 13 255 1.6 4.8 0.00 0.00 0.00 79 1013.3
20260503200520 13 0 0.0 6.4 0.00 0.00 0.00 79 1013.3
20260503200041 13 0 3.2 6.4 0.00 0.00 0.00 78 1013.2
20260503195519 13 278 1.6 6.4 0.00 0.00 0.00 78 1013.2
20260503195022 13 273 1.6 8.0 0.00 0.00 0.00 80 1013.3
20260503194543 13 235 1.6 8.0 0.00 0.00 0.00 79 1013.4
20260503194020 13 0 3.2 6.4 0.00 0.00 0.00 81 1013.4
20260503193523 13 266 1.6 8.0 0.00 0.00 0.00 80 1013.4
20260503193035 13 250 1.6 8.0 0.00 0.00 0.00 79 1013.2
20260503192519 13 0 3.2 8.0 0.00 0.00 0.00 78 1013.3
20260503192018 14 269 3.2 8.0 0.00 0.00 0.00 77 1013.3
20260503191546 14 0 1.6 6.4 0.00 0.00 0.00 77 1013.3
20260503191019 14 0 1.6 6.4 0.00 0.00 0.00 77 1013.2
20260503190519 14 238 0.0 6.4 0.00 0.00 0.00 77 1013.4
20260503190041 13 0 0.0 6.4 0.00 0.00 0.00 79 1013.4
20260503185519 13 0 0.0 6.4 0.00 0.00 0.00 80 1013.3
20260503185019 13 266 1.6 6.4 0.00 0.00 0.00 79 1013.3
20260503184541 13 245 0.0 4.8 0.00 0.00 0.00 78 1013.4
20260503184019 13 278 0.0 3.2 0.00 0.00 0.00 79 1013.3
20260503183521 13 0 0.0 4.8 0.00 0.00 0.00 80 1013.3
20260503183041 13 0 0.0 4.8 0.00 0.00 0.00 79 1013.3
20260503182519 13 0 0.0 4.8 0.00 0.00 0.00 79 1013.4
20260503182019 13 260 0.0 4.8 0.00 0.00 0.00 79 1013.2
20260503181542 13 239 0.0 4.8 0.00 0.00 0.00 80 1013.2
20260503181018 13 286 0.0 4.8 0.00 0.00 0.00 80 1013.2
20260503180520 13 246 1.6 6.4 0.00 0.00 0.00 80 1013.2
20260503180045 13 0 0.0 6.4 0.00 0.00 0.00 82 1013.1
20260503175518 13 257 0.0 3.2 0.00 0.00 0.00 80 1013.2
20260503175019 13 0 0.0 1.6 0.00 0.00 0.00 81 1013.3
20260503174537 13 0 0.0 0.0 0.00 0.00 0.00 81 1013.3
20260503174018 12 0 0.0 1.6 0.00 0.00 0.00 81 1013.1
20260503173518 12 0 0.0 4.8 0.00 0.00 0.00 82 1013.2
20260503173041 12 270 0.0 4.8 0.00 0.00 0.00 83 1013.2
20260503172518 12 262 0.0 4.8 0.00 0.00 0.00 82 1013.1
20260503172019 12 0 0.0 4.8 0.00 0.00 0.00 82 1013.2
20260503171546 12 0 0.0 4.8 0.00 0.00 0.00 82 1013.0
20260503171022 12 0 0.0 3.2 0.00 0.00 0.00 82 1013.1
20260503170519 12 0 0.0 3.2 0.00 0.00 0.00 82 1013.2
20260503150518 11 0 0.0 0.0 0.00 0.00 0.00 85 1012.6
20260503131023 11 0 0.0 0.0 0.00 0.00 0.00 85 1011.0
20260503130518 11 0 0.0 0.0 0.00 0.00 0.00 85 1011.0
20260503110518 11 0 0.0 3.2 0.00 0.00 0.00 85 1011.2
20260503081543 11 302 0.0 3.2 0.00 0.00 0.00 85 1012.1
20260503081024 11 0 0.0 3.2 0.00 0.00 0.00 85 1012.0
20260503080521 11 0 0.0 3.2 0.00 0.00 0.00 85 1012.0
20260503072522 11 0 0.0 4.8 0.00 0.00 0.00 85 1011.8
20260503072018 11 0 0.0 4.8 0.00 0.00 0.00 85 1011.9
20260503071553 11 292 0.0 1.6 0.00 0.00 0.00 85 1011.9
20260503071021 11 0 0.0 0.0 0.00 0.00 0.00 85 1012.0
20260503070519 11 0 0.0 3.2 0.00 0.00 0.00 85 1012.0
20260503055018 11 0 0.0 4.8 0.00 0.00 0.00 85 1012.3
20260503054550 11 0 0.0 4.8 0.00 0.00 0.00 85 1012.2
20260503054018 11 305 0.0 6.4 0.00 0.00 0.00 85 1012.4
20260503053518 11 0 0.0 6.4 0.00 0.00 0.00 85 1012.4
20260503053036 11 0 0.0 3.2 0.00 0.00 0.00 85 1012.4
20260503052518 11 0 0.0 3.2 0.00 0.00 0.00 85 1012.4
20260503052023 11 0 0.0 3.2 0.00 0.00 0.00 85 1012.4
20260503051541 11 282 0.0 3.2 0.00 0.00 0.00 85 1012.4
20260503051019 11 0 0.0 4.8 0.00 0.00 0.00 85 1012.3
20260503050518 11 0 0.0 4.8 0.00 0.00 0.00 85 1012.3
20260503050042 11 267 0.0 4.8 0.00 0.00 0.00 85 1012.4
20260503045518 11 0 0.0 6.4 0.00 0.00 0.00 85 1012.4
20260503045020 11 271 0.0 6.4 0.00 0.00 0.00 85 1012.4
20260503044540 11 266 0.0 6.4 0.00 0.00 0.00 85 1012.3
20260503044018 11 274 0.0 4.8 0.00 0.00 0.00 85 1012.4
20260503043517 11 0 0.0 4.8 0.00 0.00 0.00 85 1012.3
20260503043040 11 0 0.0 4.8 0.00 0.00 0.00 85 1012.2
20260503042517 11 279 0.0 3.2 0.00 0.00 0.00 85 1012.3
20260503042019 11 0 0.0 3.2 0.00 0.00 0.00 85 1012.3
20260503041543 11 0 0.0 3.2 0.00 0.00 0.00 85 1012.1
20260503041021 11 0 0.0 4.8 0.00 0.00 0.00 85 1012.3
20260503040521 11 307 0.0 4.8 0.00 0.00 0.00 85 1012.2
20260503040050 11 307 0.0 4.8 0.00 0.00 0.00 85 1012.2
20260503035522 11 0 0.0 1.6 0.00 0.00 0.00 85 1012.2
20260503035018 11 0 0.0 1.6 0.00 0.00 0.00 85 1012.0
20260503034541 11 0 0.0 6.4 0.00 0.00 0.00 85 1012.1
20260503034017 11 0 0.0 6.4 0.00 0.00 0.00 85 1012.2
20260503033517 11 286 0.0 6.4 0.00 0.00 0.00 85 1012.1
20260503033041 11 320 0.0 6.4 0.00 0.00 0.00 85 1011.9
20260503032525 11 0 0.0 4.8 0.00 0.00 0.00 85 1011.7
20260503032021 11 0 0.0 4.8 0.00 0.00 0.00 85 1011.7
20260503031541 11 0 0.0 1.6 0.00 0.00 0.00 85 1011.6
20260503031022 11 0 0.0 0.0 0.00 0.00 0.00 85 1011.5
20260503030521 11 0 0.0 3.2 0.00 0.00 0.00 85 1011.6
20260503030046 11 0 0.0 3.2 0.00 0.00 0.00 85 1011.4
20260503025518 11 0 0.0 3.2 0.00 0.00 0.00 85 1011.5
20260503025021 11 0 0.0 4.8 0.00 0.00 0.00 85 1011.5
20260503024535 11 0 0.0 4.8 0.00 0.00 0.00 85 1011.4
20260503024021 11 259 0.0 4.8 0.00 0.00 0.00 85 1011.5
20260503023517 11 0 0.0 3.2 0.00 0.00 0.00 85 1011.4
20260503023039 11 0 0.0 6.4 0.00 0.00 0.00 85 1011.5
20260503022517 11 0 0.0 6.4 0.00 0.00 0.00 85 1011.5
20260503022018 11 266 1.6 6.4 0.00 0.00 0.00 85 1011.5
20260503021541 11 0 0.0 6.4 0.00 0.00 0.00 85 1011.5
20260503021018 11 0 0.0 6.4 0.00 0.00 0.00 85 1011.4
20260503020522 11 281 0.0 6.4 0.00 0.00 0.00 85 1011.5
20260503020041 11 0 0.0 6.4 0.00 0.00 0.00 85 1011.7
20260503015524 11 294 0.0 6.4 0.00 0.00 0.00 85 1011.7
20260503015024 11 306 0.0 4.8 0.00 0.00 0.00 84 1011.6
20260503014542 11 0 0.0 4.8 0.00 0.00 0.00 84 1011.6
20260503014021 12 0 0.0 1.6 0.00 0.00 0.00 84 1011.6
20260503013520 12 0 0.0 4.8 0.00 0.00 0.00 84 1011.7
20260503013039 12 0 0.0 4.8 0.00 0.00 0.00 84 1011.7
20260503012521 12 0 0.0 6.4 0.00 0.00 0.00 83 1011.7
20260503012019 12 0 0.0 6.4 0.00 0.00 0.00 83 1011.9
20260503011542 12 295 0.0 3.2 0.00 0.00 0.00 83 1011.9
20260503011043 12 0 0.0 8.0 0.00 0.00 0.00 83 1011.9
20260503010519 12 0 0.0 8.0 0.00 0.00 0.00 84 1011.9
20260503010041 12 302 1.6 8.0 0.00 0.00 0.00 83 1011.9
20260503005518 12 0 0.0 4.8 0.00 0.00 0.00 83 1011.8
20260503005019 12 0 0.0 3.2 0.00 0.00 0.00 83 1011.9
20260503004541 12 0 0.0 6.4 0.00 0.00 0.00 82 1011.7
20260503004017 12 295 0.0 6.4 0.00 0.00 0.00 82 1011.9
20260503003517 12 0 0.0 8.0 0.00 0.00 0.00 82 1011.9
20260503003040 12 312 3.2 8.0 0.00 0.00 0.00 82 1011.9
20260503002517 12 313 1.6 8.0 0.00 0.00 0.00 81 1011.9
20260503002018 12 0 0.0 4.8 0.00 0.00 0.00 81 1012.1
20260503001551 12 0 0.0 3.2 0.00 0.00 0.00 82 1012.0
20260503001020 12 283 0.0 3.2 0.00 0.00 0.00 81 1011.9
20260503000517 12 0 0.0 6.4 0.00 0.00 0.00 82 1012.1
20260503000036 12 0 0.0 6.4 0.00 0.00 0.00 81 1012.1
20260502235517 12 299 0.0 4.8 0.00 0.00 0.00 81 1012.1
20260502235021 13 307 0.0 6.4 0.00 0.00 0.00 80 1012.1
20260502234540 12 0 0.0 6.4 0.00 0.00 0.00 81 1012.1
20260502234024 13 307 0.0 6.4 0.00 0.00 0.00 80 1012.1
20260502233519 13 0 0.0 8.0 0.00 0.00 0.00 80 1012.1
20260502233045 13 307 0.0 8.0 0.00 0.00 0.00 79 1012.1
20260502232522 13 242 0.0 6.4 0.00 0.00 0.00 79 1012.3
20260502232021 13 0 0.0 6.4 0.00 0.00 0.00 80 1012.3
20260502231540 13 243 0.0 6.4 0.00 0.00 0.00 80 1012.3
20260502231021 12 0 0.0 6.4 0.00 0.00 0.00 80 1012.4
20260502230518 12 309 0.0 6.4 0.00 0.00 0.00 81 1012.5
20260502230040 13 0 1.6 6.4 0.00 0.00 0.00 80 1012.5
20260502225517 13 340 1.6 6.4 0.00 0.00 0.00 80 1012.7
20260502225025 13 0 0.0 6.4 0.00 0.00 0.00 80 1012.7
20260502224537 12 0 0.0 6.4 0.00 0.00 0.00 81 1012.8
20260502224020 12 257 1.6 8.0 0.00 0.00 0.00 81 1012.8
20260502223519 12 257 1.6 8.0 0.00 0.00 0.00 81 1013.0
20260502223037 12 284 1.6 8.0 0.00 0.00 0.00 81 1013.1
20260502222521 12 0 1.6 6.4 0.00 0.00 0.00 81 1013.1
20260502222022 12 226 0.0 6.4 0.00 0.00 0.00 80 1013.2
20260502221543 12 0 0.0 6.4 0.00 0.00 0.00 81 1013.4
20260502221019 12 289 0.0 6.4 0.00 0.00 0.00 81 1013.3
20260502220519 12 0 0.0 8.0 0.00 0.00 0.00 81 1013.4
20260502220043 12 0 1.6 8.0 0.00 0.00 0.00 82 1013.4
20260502215520 12 257 0.0 4.8 0.00 0.00 0.00 81 1013.4
20260502215022 12 0 0.0 4.8 0.00 0.00 0.00 81 1013.4
20260502214542 12 0 0.0 6.4 0.00 0.00 0.00 81 1013.4
20260502214024 12 252 0.0 6.4 0.00 0.00 0.00 80 1013.4
20260502213520 12 278 0.0 6.4 0.00 0.00 0.00 79 1013.3
20260502213042 12 0 0.0 4.8 0.00 0.00 0.00 80 1013.4
20260502212520 12 248 0.0 4.8 0.00 0.00 0.00 80 1013.5